Regional Weather Roundup
Issued by NWS Albany, NY

Home | Current Version | Previous Version | Text Only | Print | Product List | Glossary On
Versions: 1 2 3 4 5 6 7 8 9 10 11 12 13 14 15 16 17 18 19 20 21 22 23 24 25 26 27 28 29 30 31 32 33 34 35 36 37 38 39 40 41 42 43 44 45 46 47 48 49 50
233
ASUS41 KALY 180810
RWRALY

NEW YORK STATE HOURLY WEATHER ROUNDUP
NATIONAL WEATHER SERVICE ALBANY NY
400 AM EDT WED OCT 18 2017

NOTE: "FAIR" INDICATES FEW OR NO CLOUDS BELOW 12,000 FEET WITH NO
SIGNIFICANT WEATHER AND/OR NO OBSTRUCTIONS TO VISIBILITY.

NYZ032-033-038>043-046>054-057>066-NYZ062>081-082-084-180900-
EAST


CITY           SKY/WX    TMP DP  RH WIND       PRES   REMARKS
ALBANY         PTCLDY    44  35  70 VRB3      30.22R
GLENS FALLS    PTCLDY    35  33  92 SW3       30.19S
POUGHKEEPSIE   CLEAR     41  36  82 S3        30.24F
NEWBURGH       CLEAR     43  37  81 W8        30.26S
MONTGOMERY     CLEAR     37  35  92 S5        30.25S WCI  33
WHITE PLAINS   CLEAR     48  34  58 W7        30.24F
ISLIP          CLEAR     46  40  79 W6        30.26F
NEW YORK CITY  CLEAR     54  37  52 SW8       30.26F
CENTRAL PARK   CLEAR     51  37  58 MISG      30.29F
$$

NYZ005>009-017-018-044>046-055-056-180900-
CENTRAL


CITY           SKY/WX    TMP DP  RH WIND       PRES   REMARKS
FULTON         CLEAR     50  40  68 S5        30.18R
SYRACUSE       PTCLDY    51  41  68 SW7       30.19R
ROME           CLEAR     40  38  93 CALM      30.21R
ELMIRA         CLEAR     44  40  85 SW7       30.23S
BINGHAMTON     CLEAR     46  36  68 SW8       30.23R
MONTICELLO     CLEAR     36  33  89 CALM      30.26S
$$

NYZ026>034-041>043-087-180900-
NORTH


CITY           SKY/WX    TMP DP  RH WIND       PRES   REMARKS
WATERTOWN      CLEAR     51  45  79 S6        30.15S
FORT DRUM      NOT AVBL
OGDENSBURG     FAIR      53  49  87 SW6       30.11R
MASSENA        CLEAR     53  49  86 SW10      30.10R
SARANAC LAKE   PTCLDY    49  43  80 SW12      30.11S
PLATTSBURGH    CLEAR     51  42  71 CALM      30.09R
$$

NYZ001>004-010>016-019>021-085-180900-
WEST


CITY           SKY/WX    TMP DP  RH WIND       PRES   REMARKS
NIAGARA FALLS    N/A     57  48  72 SW9       30.20R
BUFFALO        CLEAR     53  44  71 SW8       30.21R
DUNKIRK        CLEAR     54  43  66 S12       30.23R
JAMESTOWN      CLEAR     46  38  73 SW9       30.26S
WELLSVILLE     CLEAR     50  36  58 W9        30.26R
ROCHESTER      CLEAR     50  43  77 SW7       30.20R
$$

             KEY
       WCI = WIND CHILL INDEX
       VSB = VISIBILITY
       HX  = HEAT INDEX
$$




USA.gov is the U.S. government's official web portal to all federal, state and local government web resources and services.